Volver al catálogo

QIANFAN-45

ActivoComunicacionesPO
NORAD 62246·PAYLOAD·🇨🇳 China

Lanzado Dec 5, 2024 desde Taiyuan Satellite Launch Center

Loading…

Próximos Pases (próximas 24 horas)

TLE

ActualizadoSource: Space-Track

Época: Sep 14, 2026, 21:26 UTC

1 62246U 24232K   26257.89353167  .00000092  00000-0  12398-3 0  9994
2 62246  89.0164  13.5183 0016280 114.2171 246.0684 13.51027834136548

Sigue QIANFAN-45 en tiempo real con AllMySat

Download on the App Store